Location: Chillicothe
(39.7950°N, 93.5520°W)
Time: 21:24:30
(UTC-05:00)

SR - All Passes

Search period start: 16 October 2019 00:00
Search period end: 26 October 2019 00:00
Orbit: 575 x 881 km, 66.7° (Epoch: 16 October)

Date Brightness Start Highest point End Pass type
(mag) Time Alt. Az. Time Alt. Az. Time Alt. Az.
16 Oct - 01:42:42 10° W 01:46:15 19° NW 01:50:01 10° N night (unlit)
16 Oct - 07:00:58 10° NNE 07:02:07 11° NE 07:03:16 10° NE visible
16 Oct - 08:40:00 10° NNW 08:45:42 47° NE 08:51:22 10° SE daylight
16 Oct - 10:22:38 10° NW 10:27:34 28° WSW 10:32:27 10° SSW daylight
16 Oct - 23:09:50 10° S 23:14:06 32° ESE 23:18:45 10° NE night (unlit)
17 Oct - 00:51:41 10° WSW 00:56:08 32° NW 01:00:59 10° NNE night (unlit)
17 Oct - 07:50:44 10° N 07:55:44 28° NE 08:00:42 10° ESE daylight
17 Oct - 09:32:24 10° NW 09:38:09 54° WSW 09:43:50 10° S daylight
17 Oct - 22:22:06 10° SE 22:24:54 15° ESE 22:27:50 10° ENE night (unlit)
18 Oct - 00:01:26 10° SW 00:06:16 62° WNW 00:11:37 10° NNE night (unlit)
18 Oct - 01:47:45 10° WNW 01:49:36 12° NW 01:51:29 10° NNW night (unlit)
18 Oct - 07:01:51 10° N 07:05:33 17° NE 07:09:15 10° E visible
18 Oct - 08:42:36 10° NNW 08:48:34 82° ENE 08:54:27 10° SSE daylight
18 Oct - 10:26:46 10° WNW 10:29:56 15° WSW 10:33:05 10° SW daylight
18 Oct - 23:11:50 10° SSW 23:16:37 65° ESE 23:21:55 10° NE night (unlit)
19 Oct - 00:55:35 10° W 00:59:17 20° NW 01:03:13 10° N night (unlit)
19 Oct - 06:14:46 10° NNE 06:15:09 10° NE 06:15:31 10° NE visible
19 Oct - 07:53:07 10° NNW 07:58:47 45° NE 08:04:24 10° SE daylight
19 Oct - 09:35:39 10° NW 09:40:42 30° WSW 09:45:40 10° SSW daylight
19 Oct - 22:22:59 10° S 22:27:13 31° ESE 22:31:48 10° NE night (unlit)
20 Oct - 00:04:39 10° WSW 00:09:11 34° NW 00:14:09 10° NNE night (unlit)
20 Oct - 07:03:53 10° N 07:08:48 26° NE 07:13:42 10° ESE visible
20 Oct - 08:45:29 10° NW 08:51:17 57° WSW 08:56:59 10° S daylight
20 Oct - 21:35:24 10° SE 21:38:02 14° ESE 21:40:45 10° ENE night (unlit)
20 Oct - 23:14:27 10° SW 23:19:20 67° WNW 23:24:44 10° NNE night (unlit)
21 Oct - 01:00:27 10° WNW 01:02:37 12° NW 01:04:51 10° NNW night (unlit)
21 Oct - 06:15:03 10° N 06:18:36 16° NE 06:22:09 10° ENE visible
21 Oct - 07:55:43 10° NNW 08:01:41 78° ENE 08:07:32 10° SSE daylight
21 Oct - 09:39:40 10° WNW 09:43:05 16° WSW 09:46:28 10° SW daylight
21 Oct - 22:24:55 10° SSW 22:29:43 61° ESE 22:35:01 10° NE night (unlit)
22 Oct - 00:08:29 10° W 00:12:19 21° NW 00:16:24 10° N night (unlit)
22 Oct - 07:06:14 10° NNW 07:11:52 43° NE 07:17:26 10° SE visible
22 Oct - 08:48:42 10° NW 08:53:50 31° WSW 08:58:53 10° S daylight
22 Oct - 21:36:10 10° SSE 21:40:20 29° ESE 21:44:51 10° NE night (unlit)
22 Oct - 23:17:38 10° WSW 23:22:15 37° NW 23:27:18 10° NNE night (unlit)
23 Oct - 06:17:02 10° N 06:21:51 25° NE 06:26:39 10° ESE visible
23 Oct - 07:58:33 10° NW 08:04:24 60° WSW 08:10:07 10° SSE daylight
23 Oct - 20:48:46 10° SE 20:51:09 14° ESE 20:53:39 10° ENE night (unlit)
23 Oct - 22:27:29 10° SW 22:32:25 71° WNW 22:37:51 10° NNE night (unlit)
24 Oct - 00:13:12 10° WNW 00:15:38 13° NW 00:18:10 10° N night (unlit)
24 Oct - 05:28:15 10° N 05:31:38 15° NE 05:35:01 10° ENE visible
24 Oct - 07:08:49 10° NNW 07:14:47 74° ENE 07:20:37 10° SE daylight
24 Oct - 08:52:35 10° WNW 08:56:13 17° WSW 08:59:49 10° SW daylight
24 Oct - 21:38:01 10° SSW 21:42:49 57° ESE 21:48:06 10° NE night (unlit)
24 Oct - 23:21:24 10° W 23:25:21 22° NW 23:29:36 10° N night (unlit)
25 Oct - 06:19:22 10° NNW 06:24:57 41° NE 06:30:28 10° ESE visible
25 Oct - 08:01:43 10° NW 08:06:57 33° WSW 08:12:05 10° S daylight
25 Oct - 20:49:20 10° SSE 20:53:27 27° ESE 20:57:54 10° NE night (unlit)
25 Oct - 22:30:36 10° WSW 22:35:19 39° NW 22:40:27 10° NNE night (unlit)
